Location: Neuvy Saint Sepulchre
(46.5953°N, 1.8122°E)
Time: 10:31:06
(UTC+02:00)

ISS - Pass Details

Date: 20 March 2024
Orbit: 413 x 419 km, 51.6° (Epoch: 13 April)

Event Time Altitude Azimuth Distance (km) Brightness Sun altitude
Rises 21:21:48 0° 286° (WNW) 2,367 1.4 -23.3°
Reaches altitude 10° 21:24:01 10° 296° (WNW) 1,505 0.2 -23.6°
Enters shadow 21:26:37 31° 343° (NNW) 759 -2.1 -24.0°
